EW1135 Weather Reports


Display with metric or nautical units.
time (UTC)temp
F
wind
direction
speed
MPH
gust
MPH
rain 1hr
in
rain 24hr
in
rain mn
in
humidity
%
barometer
mb
20260507084543 53 33 4.0 0.0 0.00 0.00 0.00 87 1019.9
20260507083041 53 72 3.0 0.0 0.00 0.00 0.00 87 1019.9
20260507081539 53 48 3.0 0.0 0.00 0.00 0.00 87 1020.0
20260507080038 53 60 4.0 0.0 0.00 0.00 0.00 87 1020.0
20260507074544 53 35 2.0 0.0 0.00 0.00 0.00 88 1020.1
20260507073025 53 67 3.0 0.0 0.00 0.00 0.00 87 1020.1
20260507071525 54 46 4.0 0.0 0.00 0.00 0.00 87 1020.1
20260507070024 54 36 4.0 0.0 0.00 0.00 0.00 87 1020.1
20260507064523 54 33 3.0 0.0 0.00 0.00 0.00 87 1020.3
20260507063025 54 46 5.0 0.0 0.00 0.00 0.00 87 1020.3
20260507061520 53 76 2.0 0.0 0.00 0.00 0.00 87 1020.3
20260507060019 53 64 2.0 0.0 0.00 0.00 0.00 87 1020.5
20260507054518 53 67 1.0 0.0 0.00 0.00 0.00 87 1020.4
20260507053006 54 85 2.0 0.0 0.00 0.00 0.00 87 1020.6
20260507051505 54 17 4.0 0.0 0.00 0.00 0.00 87 1020.6
20260507050005 54 15 2.0 0.0 0.00 0.00 0.00 87 1020.7
20260507044504 54 46 3.0 0.0 0.00 0.00 0.00 87 1020.7
20260507043003 54 36 4.0 0.0 0.00 0.00 0.00 87 1020.6
20260507041501 54 22 4.0 0.0 0.00 0.00 0.00 87 1020.6
20260507040105 54 34 3.0 0.0 0.00 0.00 0.00 87 1020.6
20260507034602 54 13 2.0 0.0 0.00 0.00 0.00 87 1020.5
20260507033046 54 15 3.0 0.0 0.00 0.00 0.00 86 1020.6
20260507031542 54 346 2.0 0.0 0.00 0.00 0.00 86 1020.5
20260507030042 54 345 2.0 0.0 0.00 0.00 0.00 86 1020.4
20260507024553 54 341 2.0 0.0 0.00 0.00 0.00 86 1020.4
20260507023041 54 341 2.0 0.0 0.00 0.00 0.00 86 1020.4
20260507021547 54 341 1.0 0.0 0.00 0.00 0.00 86 1020.3
20260507020043 54 341 1.0 0.0 0.00 0.00 0.00 85 1020.5
20260507014543 54 338 1.0 0.0 0.00 0.00 0.00 86 1020.6
20260507013037 55 337 1.0 0.0 0.00 0.00 0.00 85 1020.7
20260507011543 55 337 1.0 0.0 0.00 0.00 0.00 85 1020.7
20260507010047 55 337 1.0 0.0 0.00 0.00 0.00 85 1020.7
20260507004537 55 337 0.0 0.0 0.00 0.00 0.00 85 1020.8
20260507003039 55 337 1.0 0.0 0.00 0.00 0.00 85 1020.9
20260507001543 55 337 1.0 0.0 0.00 0.00 0.00 85 1020.9
20260507000023 55 336 1.0 0.0 0.00 0.00 0.00 85 1021.0
20260506234521 55 336 3.0 0.0 0.00 0.00 0.00 85 1021.0
20260506233021 55 335 3.0 0.0 0.00 0.00 0.00 85 1021.0
20260506231523 56 313 4.0 0.0 0.00 0.00 0.00 84 1021.0
20260506230019 56 320 4.0 0.0 0.00 0.00 0.00 84 1021.1
20260506224521 56 316 5.0 0.0 0.00 0.00 0.00 84 1021.1
20260506223018 57 310 5.0 0.0 0.00 0.00 0.00 84 1021.3
20260506221518 57 300 4.0 0.0 0.00 0.00 0.00 84 1021.4
20260506220005 57 251 3.0 0.0 0.00 0.00 0.00 84 1021.3
20260506214502 57 251 3.0 0.0 0.00 0.00 0.00 84 1021.2
20260506213100 57 245 3.0 0.0 0.00 0.00 0.00 85 1021.3
20260506211559 56 250 3.0 0.0 0.00 0.00 0.00 85 1021.1
20260506210054 56 249 3.0 0.0 0.00 0.00 0.00 85 1021.2
20260506204555 56 247 3.0 0.0 0.00 0.00 0.00 85 1021.1
20260506203052 56 243 2.0 0.0 0.00 0.00 0.00 85 1021.1
20260506201549 56 275 3.0 0.0 0.00 0.00 0.00 85 1021.1
20260506200034 56 250 3.0 0.0 0.00 0.00 0.00 86 1021.1
20260506194537 55 250 3.0 0.0 0.00 0.00 0.00 86 1021.0
20260506193033 55 235 4.0 0.0 0.00 0.00 0.00 86 1021.0
20260506191532 55 248 5.0 0.0 0.00 0.00 0.00 86 1021.0
20260506190028 55 244 5.0 0.0 0.00 0.00 0.00 86 1020.9
20260506184526 55 238 4.0 0.0 0.00 0.00 0.00 86 1020.8
20260506183025 55 265 4.0 0.0 0.00 0.00 0.00 86 1020.7
20260506181527 54 241 4.0 0.0 0.00 0.00 0.00 86 1020.7
20260506180006 54 247 4.0 0.0 0.00 0.00 0.00 86 1020.6
20260506174505 54 242 6.0 0.0 0.00 0.00 0.00 86 1020.4
20260506173118 54 265 4.0 0.0 0.00 0.00 0.00 86 1020.4
20260506171551 54 240 5.0 0.0 0.00 0.00 0.00 86 1020.3
20260506170050 54 275 5.0 0.0 0.00 0.00 0.00 86 1020.3
20260506164550 54 302 6.0 0.0 0.00 0.00 0.00 86 1020.3
20260506163053 54 281 6.0 0.0 0.00 0.00 0.00 86 1020.1
20260506161547 54 265 5.0 0.0 0.00 0.00 0.00 86 1019.8
20260506160046 54 265 4.0 0.0 0.00 0.00 0.00 86 1019.6
20260506154544 54 259 5.0 0.0 0.00 0.00 0.00 86 1019.4
20260506153040 54 256 2.0 0.0 0.00 0.00 0.00 86 1019.3
20260506151531 54 210 3.0 0.0 0.00 0.00 0.00 86 1019.5
20260506150029 54 291 3.0 0.0 0.00 0.00 0.00 86 1019.5
20260506144549 53 283 3.0 0.0 0.00 0.00 0.00 86 1019.6
20260506143028 53 287 4.0 0.0 0.00 0.00 0.00 86 1019.6
20260506141527 53 291 2.0 0.0 0.00 0.00 0.00 86 1019.3
20260506140040 53 329 2.0 0.0 0.00 0.00 0.00 86 1019.1
20260506134531 53 280 2.0 0.0 0.00 0.00 0.00 86 1018.8
20260506133012 53 275 1.0 0.0 0.00 0.00 0.00 86 1018.8
20260506131511 53 130 1.0 0.0 0.00 0.00 0.00 86 1018.6
20260506130010 53 130 0.0 0.0 0.00 0.00 0.00 86 1018.6
20260506124509 53 129 1.0 0.0 0.00 0.00 0.00 86 1018.5
20260506123009 53 51 0.0 0.0 0.00 0.00 0.00 86 1018.3
20260506121508 53 43 2.0 0.0 0.00 0.00 0.00 86 1018.4
20260506120011 53 60 1.0 0.0 0.00 0.00 0.00 86 1018.6
20260506114512 53 60 1.0 0.0 0.00 0.00 0.00 86 1018.3
20260506113004 53 64 3.0 0.0 0.00 0.00 0.00 86 1018.4
20260506111503 54 337 4.0 0.0 0.00 0.00 0.00 86 1018.2
20260506110104 53 287 2.0 0.0 0.00 0.00 0.00 86 1018.3
20260506104559 53 348 3.0 0.0 0.00 0.00 0.00 86 1018.1
20260506103048 54 312 4.0 0.0 0.00 0.00 0.00 86 1017.8
20260506101548 54 341 0.0 0.0 0.00 0.00 0.00 86 1017.6
20260506100103 54 310 4.0 0.0 0.00 0.00 0.00 86 1017.7
20260506094548 54 323 0.0 0.0 0.00 0.00 0.00 86 1017.6
20260506093046 54 323 3.0 0.0 0.00 0.00 0.00 86 1017.5
20260506091542 54 333 3.0 0.0 0.00 0.00 0.00 86 1017.4
20260506090043 54 344 3.0 0.0 0.00 0.00 0.00 86 1017.3